Flag for U.S.A. Weather past 2 weeks in Montgomery, Alabama, U.S.A.

Now
67 °F

Overcast.


Feels Like: 67 °F
Forecast: 55 / 85 °F
Wind: 5 mph from Northeast

Location: Maxwell Air Force Base / Montgomery


UV Index: 7 (High)

Visibility: 10 mi


Pressure: 30.01 "Hg

Humidity: 56%

Dew point: 51 °F

Location of MontgomeryLocation

Historic Weather in Montgomery

°F

Montgomery temperature yesterday

Maximum temperature yesterday: 84 °F (at 4:58 PM)
Minimum temperature yesterday: 60 °F (at 10:58 PM)
Average temperature yesterday: 68 °F

Past Weeks' High & Low Weather Summary

 TemperatureHumidityPressure
High84 °F (Apr 23, 4:58 PM)100% (Apr 10, 7:03 AM)30.36 "Hg (Apr 10, 7:03 AM)
Low40 °F (Apr 16, 5:58 AM)29% (Apr 9, 3:58 PM)29.75 "Hg (Apr 15, 1:58 AM)
Average65 °F73%30.09 "Hg
* Reported Apr 9 7:58 AM — Apr 24 7:58 AM, Montgomery, Weather by CustomWeather, © 2014

Note: Actual official high and low records may vary slightly from our data, if they occured in-between our weather recording intervals... More about our weather records

Advertising

Historic Weather Conditions — Data for Previous 24 hours

 ConditionsComfort  
Time TempWeatherWind HumidityBarometerVisibility
7:58 AM
Apr 24
62 °FOvercast.3 mph73%29.99 "Hg10 mi
6:58 AM59 °FOvercast.5 mph82%29.98 "Hg10 mi
5:58 AM59 °FOvercast.6 mph83%29.97 "Hg10 mi
4:58 AM57 °FOvercast.2 mph88%29.96 "Hg10 mi
3:58 AM57 °FPassing clouds.2 mph84%29.94 "Hg10 mi
2:58 AM58 °FClear.3 mph80%29.93 "Hg10 mi
1:58 AM60 °FClear.1 mph79%29.92 "Hg10 mi
12:58 AM61 °FClear.1 mph81%29.93 "Hg10 mi
11:58 PM
Apr 23
60 °FClear.2 mph89%29.93 "Hg10 mi
10:58 PM60 °FClear.2 mph92%29.94 "Hg10 mi
9:58 PM62 °FClear.No wind83%29.94 "Hg10 mi
8:58 PM65 °FClear.No wind70%29.93 "Hg10 mi
7:58 PM70 °FSunny.No wind58%29.90 "Hg10 mi
6:58 PM79 °FSunny.2 mph39%29.89 "Hg10 mi
5:58 PM83 °FSunny.1 mph34%29.88 "Hg10 mi
4:58 PM84 °FSunny.5 mph32%29.89 "Hg10 mi
3:58 PM83 °FSunny.3 mph35%29.89 "Hg10 mi
2:58 PM83 °FSunny.3 mph38%29.91 "Hg2 mi
1:58 PM82 °FSunny.6 mph42%29.93 "Hg7 mi
12:58 PM81 °FSunny.8 mph46%29.94 "Hg10 mi
11:58 AM77 °FSunny.7 mph59%29.96 "Hg10 mi
10:58 AM74 °FSunny.1 mph68%29.98 "Hg10 mi
9:58 AM67 °FSunny.3 mph100%29.99 "Hg10 mi
Weather by CustomWeather, © 2014

See weather overview